This demonstration page uses our WeatherBlox Daily Observations layout. Learn more.

Left ArrowRight Arrow

34.74481, -87.66753

Hourly Observations for April 5, 2021

Temp ( °F °C ) Dew Point ( °F °C ) Humidity (%) Winds ( mph kmh ) Pressure ( in mb ) Visibility ( mi km ) Precip ( " mm )
12:53 am 00:53 Clear 49 9.4 42 5.6 77 77 Calm 30.16 1021 10 16 0.00 0.00
1:53 am 01:53 Clear 48 8.9 41 5 77 77 Calm 30.15 1021 9 14 0.00 0.00
2:53 am 02:53 Clear 48 8.9 42 5.6 80 80 Calm 30.16 1021 10 16 0.00 0.00
3:53 am 03:53 Clear 46 7.8 41 5 83 83 Calm 30.16 1021 10 16 0.00 0.00
4:53 am 04:53 Clear 45 7.2 40 4.4 83 83 Calm 30.15 1021 10 16 0.00 0.00
5:53 am 05:53 Clear 44 6.7 38 3.3 79 79 Calm 30.16 1021 10 16 0.00 0.00
6:53 am 06:53 Sunny 45 7.2 40 4.4 83 83 Calm 30.17 1022 10 16 0.00 0.00
7:53 am 07:53 Sunny 51 10.6 42 5.6 71 71 Calm 30.19 1022 10 16 0.00 0.00
8:53 am 08:53 Sunny 59 15 43 6.1 56 56 Calm 30.18 1022 10 16 0.00 0.00
9:53 am 09:53 Sunny 66 18.9 43 6.1 43 43 Calm 30.18 1022 10 16 0.00 0.00
10:53 am 10:53 Sunny 70 21.1 44 6.7 39 39 Calm 30.17 1022 10 16 0.00 0.00
11:53 am 11:53 Sunny 74 23.3 42 5.6 32 32 ESE 3 6 30.15 1021 10 16 0.00 0.00
12:53 pm 12:53 Sunny 76 24.4 41 5 29 29 SSE 7 11 30.12 1020 10 16 0.00 0.00
1:53 pm 13:53 Sunny 79 26.1 40 4.4 25 25 S 9 15 30.09 1019 10 16 0.00 0.00
2:53 pm 14:53 Partly Cloudy 78 25.6 40 4.4 26 26 VRB 3 6 30.06 1018 10 16 0.00 0.00
3:53 pm 15:53 Sunny 78 25.6 43 6.1 29 29 SW 9 15 30.04 1017 10 16 0.00 0.00
4:53 pm 16:53 Sunny 79 26.1 40 4.4 25 25 WSW 5 7 30.02 1017 10 16 0.00 0.00
5:53 pm 17:53 Mostly Cloudy 76 24.4 45 7.2 33 33 WSW 6 9 30.02 1017 10 16 0.00 0.00
6:53 pm 18:53 Cloudy 74 23.3 46 7.8 37 37 WSW 6 9 30.03 1017 10 16 0.00 0.00
7:53 pm 19:53 Cloudy 72 22.2 45 7.2 38 38 WSW 5 7 30.03 1017 10 16 0.00 0.00
8:53 pm 20:53 Cloudy 68 20 46 7.8 45 45 Calm 30.04 1017 10 16 0.00 0.00
9:53 pm 21:53 Partly Cloudy 63 17.2 47 8.3 56 56 Calm 30.04 1017 10 16 0.00 0.00
10:53 pm 22:53 Clear 60 15.6 46 7.8 60 60 Calm 30.04 1017 10 16 0.00 0.00
11:53 pm 23:53 Clear 57 13.9 46 7.8 67 67 Calm 30.03 1017 10 16 0.00 0.00

Powered by AerisWeather